Time,TemperatureF,DewpointF,PressureIn,WindDirection,WindDirectionDegrees,WindSpeedMPH,WindSpeedGustMPH,Humidity,HourlyPrecipIn,Conditions,Clouds,dailyrainin,SoftwareType,DateUTC
2013-05-18 00:03:00,51.0,43.0,30.19,ESE,103,0.0,0.0,75,0.00,,,0.00,,2013-05-18 04:03:00,
2013-05-18 00:12:00,51.0,43.0,30.19,ESE,103,0.0,0.0,75,0.00,,,0.00,,2013-05-18 04:12:00,
2013-05-18 00:23:00,50.0,43.0,30.19,ESE,103,0.0,0.0,77,0.00,,,0.00,,2013-05-18 04:23:00,
2013-05-18 00:33:00,50.0,44.0,30.19,ESE,103,0.0,0.0,79,0.00,,,0.00,,2013-05-18 04:33:00,
2013-05-18 00:43:00,50.0,44.0,30.19,ESE,103,0.0,0.0,79,0.00,,,0.00,,2013-05-18 04:43:00,
2013-05-18 00:52:00,49.0,43.0,30.19,ESE,103,0.0,0.0,81,0.00,,,0.00,,2013-05-18 04:52:00,
2013-05-18 01:02:00,49.0,43.0,30.19,ESE,103,0.0,0.0,81,0.00,,,0.00,,2013-05-18 05:02:00,
2013-05-18 01:13:00,49.0,43.0,30.19,ESE,103,0.0,0.0,81,0.00,,,0.00,,2013-05-18 05:13:00,
2013-05-18 01:22:00,48.0,43.0,30.19,ESE,103,0.0,0.0,82,0.00,,,0.00,,2013-05-18 05:22:00,
2013-05-18 01:32:00,48.0,43.0,30.19,ESE,103,0.0,0.0,84,0.00,,,0.00,,2013-05-18 05:32:00,
2013-05-18 01:42:00,48.0,43.0,30.19,ESE,103,0.0,0.0,84,0.00,,,0.00,,2013-05-18 05:42:00,
2013-05-18 01:52:00,48.0,44.0,30.19,ESE,103,0.0,0.0,85,0.00,,,0.00,,2013-05-18 05:52:00,
2013-05-18 02:02:00,48.0,44.0,30.19,ESE,103,0.0,0.0,86,0.00,,,0.00,,2013-05-18 06:02:00,
2013-05-18 02:11:00,48.0,44.0,30.19,ESE,103,0.0,0.0,86,0.00,,,0.00,,2013-05-18 06:11:00,
2013-05-18 02:22:00,47.0,43.0,30.19,ESE,103,0.0,0.0,87,0.00,,,0.00,,2013-05-18 06:22:00,
2013-05-18 02:32:00,47.0,44.0,30.19,ESE,103,0.0,0.0,88,0.00,,,0.00,,2013-05-18 06:32:00,
2013-05-18 02:42:00,47.0,44.0,30.19,ESE,103,0.0,0.0,88,0.00,,,0.00,,2013-05-18 06:42:00,
2013-05-18 02:52:00,47.0,44.0,30.19,ESE,103,0.0,0.0,88,0.00,,,0.00,,2013-05-18 06:52:00,
2013-05-18 03:01:00,47.0,44.0,30.19,ESE,103,0.0,0.0,89,0.00,,,0.00,,2013-05-18 07:01:00,
2013-05-18 03:12:00,47.0,44.0,30.19,ESE,103,0.0,0.0,89,0.00,,,0.00,,2013-05-18 07:12:00,
2013-05-18 03:21:00,47.0,44.0,30.19,ESE,103,0.0,0.0,89,0.00,,,0.00,,2013-05-18 07:21:00,
2013-05-18 03:32:00,47.0,44.0,30.19,ESE,103,0.0,0.0,89,0.00,,,0.00,,2013-05-18 07:32:00,
2013-05-18 03:42:00,47.0,44.0,30.19,ESE,103,0.0,0.0,89,0.00,,,0.00,,2013-05-18 07:42:00,
2013-05-18 03:53:00,47.0,44.0,30.19,ESE,103,0.0,0.0,90,0.00,,,0.00,,2013-05-18 07:53:00,
2013-05-18 04:01:00,47.0,45.0,30.20,ESE,103,0.0,0.0,91,0.00,,,0.00,,2013-05-18 08:01:00,
2013-05-18 04:11:00,47.0,45.0,30.20,ESE,103,0.0,0.0,91,0.00,,,0.00,,2013-05-18 08:11:00,
2013-05-18 04:21:00,47.0,44.0,30.20,ESE,103,0.0,0.0,90,0.00,,,0.00,,2013-05-18 08:21:00,
2013-05-18 04:32:00,47.0,45.0,30.20,ESE,103,0.0,0.0,91,0.00,,,0.00,,2013-05-18 08:32:00,
2013-05-18 04:42:00,47.0,45.0,30.20,ESE,103,0.0,0.0,91,0.00,,,0.00,,2013-05-18 08:42:00,
2013-05-18 04:52:00,47.0,45.0,30.20,ESE,103,0.0,0.0,91,0.00,,,0.00,,2013-05-18 08:52:00,
2013-05-18 05:02:00,47.0,45.0,30.21,ESE,103,0.0,0.0,91,0.00,,,0.00,,2013-05-18 09:02:00,
2013-05-18 05:11:00,47.0,45.0,30.21,ESE,103,0.0,0.0,91,0.00,,,0.00,,2013-05-18 09:11:00,
2013-05-18 05:22:00,47.0,45.0,30.21,ESE,103,0.0,0.0,92,0.00,,,0.00,,2013-05-18 09:22:00,
2013-05-18 05:33:00,46.0,44.0,30.22,ESE,103,0.0,0.0,92,0.00,,,0.00,,2013-05-18 09:33:00,
2013-05-18 05:43:00,46.0,44.0,30.22,ESE,103,0.0,0.0,92,0.00,,,0.00,,2013-05-18 09:43:00,
2013-05-18 05:53:00,46.0,44.0,30.22,ESE,103,0.0,0.0,91,0.00,,,0.00,,2013-05-18 09:53:00,
2013-05-18 06:03:00,46.0,44.0,30.23,ESE,103,0.0,0.0,91,0.00,,,0.00,,2013-05-18 10:03:00,
2013-05-18 06:12:00,46.0,44.0,30.23,ESE,103,0.0,0.0,91,0.00,,,0.00,,2013-05-18 10:12:00,
2013-05-18 06:23:00,46.0,44.0,30.23,ESE,103,0.0,0.0,92,0.00,,,0.00,,2013-05-18 10:23:00,
2013-05-18 06:33:00,46.0,44.0,30.23,ESE,103,0.0,0.0,92,0.00,,,0.00,,2013-05-18 10:33:00,
2013-05-18 06:42:00,46.0,44.0,30.23,ESE,103,0.0,0.0,92,0.00,,,0.00,,2013-05-18 10:42:00,
2013-05-18 06:53:00,46.0,44.0,30.24,ESE,103,0.0,0.0,92,0.00,,,0.00,,2013-05-18 10:53:00,
2013-05-18 07:03:00,46.0,44.0,30.24,ESE,103,0.0,0.0,91,0.00,,,0.00,,2013-05-18 11:03:00,
2013-05-18 07:12:00,46.0,44.0,30.24,ESE,103,0.0,0.0,91,0.00,,,0.00,,2013-05-18 11:12:00,
2013-05-18 07:22:00,47.0,44.0,30.25,ESE,103,0.0,0.0,89,0.00,,,0.00,,2013-05-18 11:22:00,
2013-05-18 07:33:00,48.0,45.0,30.25,ESE,103,0.0,0.0,88,0.00,,,0.00,,2013-05-18 11:33:00,
2013-05-18 07:42:00,48.0,45.0,30.25,ESE,103,0.0,0.0,88,0.00,,,0.00,,2013-05-18 11:42:00,
2013-05-18 07:52:00,50.0,44.0,30.25,ESE,103,0.0,0.0,81,0.00,,,0.00,,2013-05-18 11:52:00,
2013-05-18 08:02:00,51.0,44.0,30.26,NNW,328,0.0,1.0,76,0.00,,,0.00,,2013-05-18 12:02:00,
2013-05-18 08:12:00,51.0,44.0,30.26,NNW,328,0.0,1.0,76,0.00,,,0.00,,2013-05-18 12:12:00,
2013-05-18 08:23:00,53.0,43.0,30.26,NNW,328,0.0,1.0,69,0.00,,,0.00,,2013-05-18 12:23:00,
2013-05-18 08:33:00,55.0,43.0,30.26,NNW,328,0.0,0.0,65,0.00,,,0.00,,2013-05-18 12:33:00,
2013-05-18 08:42:00,55.0,43.0,30.26,NNW,328,0.0,0.0,65,0.00,,,0.00,,2013-05-18 12:42:00,
2013-05-18 08:52:00,59.0,41.0,30.26,ENE,58,0.0,1.0,51,0.00,,,0.00,,2013-05-18 12:52:00,
2013-05-18 09:01:00,61.0,43.0,30.27,ENE,58,0.0,0.0,52,0.00,,,0.00,,2013-05-18 13:01:00,
2013-05-18 09:11:00,61.0,43.0,30.27,ENE,58,0.0,0.0,52,0.00,,,0.00,,2013-05-18 13:11:00,
2013-05-18 09:21:00,62.0,42.0,30.27,ENE,58,0.0,0.0,48,0.00,,,0.00,,2013-05-18 13:21:00,
2013-05-18 09:33:00,63.0,43.0,30.27,North,350,0.0,1.0,48,0.00,,,0.00,,2013-05-18 13:33:00,
2013-05-18 09:43:00,63.0,43.0,30.27,North,350,0.0,1.0,48,0.00,,,0.00,,2013-05-18 13:43:00,
2013-05-18 09:53:00,64.0,43.0,30.27,North,350,0.0,0.0,47,0.00,,,0.00,,2013-05-18 13:53:00,
2013-05-18 10:03:00,66.0,44.0,30.27,North,350,0.0,0.0,45,0.00,,,0.00,,2013-05-18 14:03:00,
2013-05-18 10:12:00,66.0,44.0,30.27,North,350,0.0,0.0,45,0.00,,,0.00,,2013-05-18 14:12:00,
2013-05-18 10:22:00,65.0,43.0,30.27,SSE,162,0.0,3.0,44,0.00,,,0.00,,2013-05-18 14:22:00,
2013-05-18 10:33:00,67.0,41.0,30.26,West,278,0.0,2.0,39,0.00,,,0.00,,2013-05-18 14:33:00,
2013-05-18 10:42:00,67.0,41.0,30.26,West,278,0.0,2.0,39,0.00,,,0.00,,2013-05-18 14:42:00,
2013-05-18 10:54:00,68.0,41.0,30.26,WSW,255,0.0,2.0,38,0.00,,,0.00,,2013-05-18 14:54:00,
2013-05-18 11:03:00,67.0,38.0,30.26,WNW,289,0.0,4.0,35,0.00,,,0.00,,2013-05-18 15:03:00,
2013-05-18 11:13:00,67.0,38.0,30.26,WNW,289,0.0,4.0,35,0.00,,,0.00,,2013-05-18 15:13:00,
2013-05-18 11:23:00,68.0,41.0,30.26,North,357,0.0,2.0,37,0.00,,,0.00,,2013-05-18 15:23:00,
2013-05-18 11:33:00,69.0,39.0,30.26,ESE,114,1.0,3.0,34,0.00,,,0.00,,2013-05-18 15:33:00,
2013-05-18 11:43:00,69.0,39.0,30.26,ESE,114,1.0,3.0,34,0.00,,,0.00,,2013-05-18 15:43:00,
2013-05-18 11:53:00,68.0,36.0,30.26,NNW,343,0.0,4.0,31,0.00,,,0.00,,2013-05-18 15:53:00,
2013-05-18 12:03:00,67.0,37.0,30.25,ENE,63,0.0,6.0,33,0.00,,,0.00,,2013-05-18 16:03:00,
2013-05-18 12:13:00,67.0,37.0,30.25,ENE,63,0.0,6.0,33,0.00,,,0.00,,2013-05-18 16:13:00,
2013-05-18 12:22:00,71.0,38.0,30.25,NNE,32,0.0,3.0,30,0.00,,,0.00,,2013-05-18 16:22:00,
2013-05-18 12:33:00,68.0,35.0,30.24,East,79,0.0,2.0,30,0.00,,,0.00,,2013-05-18 16:33:00,
2013-05-18 12:42:00,68.0,35.0,30.24,East,79,0.0,2.0,30,0.00,,,0.00,,2013-05-18 16:42:00,
2013-05-18 12:52:00,71.0,40.0,30.24,NE,39,0.0,2.0,33,0.00,,,0.00,,2013-05-18 16:52:00,
2013-05-18 13:02:00,71.0,39.0,30.24,NW,314,1.0,4.0,31,0.00,,,0.00,,2013-05-18 17:02:00,
2013-05-18 13:12:00,71.0,39.0,30.24,NW,314,1.0,4.0,31,0.00,,,0.00,,2013-05-18 17:12:00,
2013-05-18 13:22:00,68.0,39.0,30.23,SW,227,0.0,1.0,34,0.00,,,0.00,,2013-05-18 17:22:00,
2013-05-18 13:32:00,69.0,38.0,30.23,NW,321,0.0,2.0,32,0.00,,,0.00,,2013-05-18 17:32:00,
2013-05-18 13:42:00,69.0,38.0,30.23,NW,321,0.0,2.0,32,0.00,,,0.00,,2013-05-18 17:42:00,
2013-05-18 13:52:00,69.0,38.0,30.23,NE,53,0.0,1.0,32,0.00,,,0.00,,2013-05-18 17:52:00,
2013-05-18 14:01:00,69.0,38.0,30.23,West,266,0.0,2.0,32,0.00,,,0.00,,2013-05-18 18:01:00,
2013-05-18 14:12:00,69.0,38.0,30.23,West,266,0.0,2.0,32,0.00,,,0.00,,2013-05-18 18:12:00,
2013-05-18 14:21:00,72.0,41.0,30.22,NE,37,0.0,2.0,32,0.00,,,0.00,,2013-05-18 18:21:00,
2013-05-18 14:32:00,71.0,40.0,30.22,SSW,213,0.0,2.0,32,0.00,,,0.00,,2013-05-18 18:32:00,
2013-05-18 14:42:00,71.0,40.0,30.22,SSW,213,0.0,2.0,32,0.00,,,0.00,,2013-05-18 18:42:00,
2013-05-18 14:52:00,71.0,39.0,30.21,WNW,302,1.0,3.0,31,0.00,,,0.00,,2013-05-18 18:52:00,
2013-05-18 15:02:00,72.0,41.0,30.21,WSW,239,0.0,3.0,33,0.00,,,0.00,,2013-05-18 19:02:00,
2013-05-18 15:12:00,72.0,41.0,30.21,WSW,239,0.0,3.0,33,0.00,,,0.00,,2013-05-18 19:12:00,
2013-05-18 15:22:00,71.0,40.0,30.20,West,277,1.0,2.0,32,0.00,,,0.00,,2013-05-18 19:22:00,
2013-05-18 15:32:00,72.0,41.0,30.20,WNW,285,0.0,2.0,32,0.00,,,0.00,,2013-05-18 19:32:00,
2013-05-18 15:42:00,72.0,41.0,30.20,WNW,285,0.0,2.0,32,0.00,,,0.00,,2013-05-18 19:42:00,
2013-05-18 15:52:00,70.0,40.0,30.20,WSW,238,0.0,1.0,33,0.00,,,0.00,,2013-05-18 19:52:00,
2013-05-18 16:02:00,70.0,38.0,30.20,SW,215,0.0,1.0,31,0.00,,,0.00,,2013-05-18 20:02:00,
2013-05-18 16:11:00,70.0,38.0,30.20,SW,215,0.0,1.0,31,0.00,,,0.00,,2013-05-18 20:11:00,
2013-05-18 16:22:00,70.0,40.0,30.20,SW,234,0.0,1.0,33,0.00,,,0.00,,2013-05-18 20:22:00,
2013-05-18 16:32:00,70.0,42.0,30.20,SW,234,0.0,1.0,36,0.00,,,0.00,,2013-05-18 20:32:00,
2013-05-18 16:42:00,70.0,42.0,30.20,SW,234,0.0,1.0,36,0.00,,,0.00,,2013-05-18 20:42:00,
2013-05-18 16:52:00,69.0,40.0,30.20,SW,226,0.0,1.0,35,0.00,,,0.00,,2013-05-18 20:52:00,
2013-05-18 17:01:00,70.0,40.0,30.20,South,184,0.0,1.0,34,0.00,,,0.00,,2013-05-18 21:01:00,
2013-05-18 17:12:00,70.0,40.0,30.20,South,184,0.0,1.0,34,0.00,,,0.00,,2013-05-18 21:12:00,
2013-05-18 17:21:00,69.0,41.0,30.20,WSW,249,0.0,1.0,36,0.00,,,0.00,,2013-05-18 21:21:00,
2013-05-18 17:33:00,69.0,42.0,30.19,WNW,288,0.0,1.0,37,0.00,,,0.00,,2013-05-18 21:33:00,
2013-05-18 17:43:00,69.0,42.0,30.19,WNW,288,0.0,1.0,37,0.00,,,0.00,,2013-05-18 21:43:00,
2013-05-18 17:53:00,69.0,42.0,30.19,WNW,289,0.0,3.0,37,0.00,,,0.00,,2013-05-18 21:53:00,
2013-05-18 18:03:00,69.0,43.0,30.19,WNW,303,0.0,2.0,39,0.00,,,0.00,,2013-05-18 22:03:00,
2013-05-18 18:12:00,70.0,43.0,30.19,SW,226,0.0,3.0,37,0.00,,,0.00,,2013-05-18 22:12:00,
2013-05-18 18:23:00,70.0,43.0,30.19,SW,226,0.0,3.0,37,0.00,,,0.00,,2013-05-18 22:23:00,
2013-05-18 18:33:00,69.0,44.0,30.19,South,177,0.0,1.0,41,0.00,,,0.00,,2013-05-18 22:33:00,
2013-05-18 18:42:00,68.0,45.0,30.19,SW,236,0.0,4.0,43,0.00,,,0.00,,2013-05-18 22:42:00,
2013-05-18 18:53:00,68.0,45.0,30.19,SW,236,0.0,4.0,43,0.00,,,0.00,,2013-05-18 22:53:00,
2013-05-18 19:01:00,67.0,44.0,30.19,West,272,1.0,3.0,43,0.00,,,0.00,,2013-05-18 23:01:00,
2013-05-18 19:12:00,67.0,44.0,30.19,West,272,1.0,3.0,43,0.00,,,0.00,,2013-05-18 23:12:00,
2013-05-18 19:22:00,67.0,46.0,30.20,WNW,288,0.0,7.0,46,0.00,,,0.00,,2013-05-18 23:22:00,
2013-05-18 19:32:00,66.0,47.0,30.20,West,281,1.0,7.0,50,0.00,,,0.00,,2013-05-18 23:32:00,
2013-05-18 19:42:00,66.0,47.0,30.20,West,281,1.0,7.0,50,0.00,,,0.00,,2013-05-18 23:42:00,
2013-05-18 19:53:00,65.0,48.0,30.21,West,276,0.0,5.0,54,0.00,,,0.00,,2013-05-18 23:53:00,
2013-05-18 20:01:00,64.0,48.0,30.21,WNW,285,1.0,4.0,56,0.00,,,0.00,,2013-05-19 00:01:00,
2013-05-18 20:12:00,64.0,48.0,30.21,WNW,285,1.0,4.0,56,0.00,,,0.00,,2013-05-19 00:12:00,
2013-05-18 20:21:00,63.0,48.0,30.22,WNW,303,0.0,3.0,58,0.00,,,0.00,,2013-05-19 00:21:00,
2013-05-18 20:32:00,62.0,48.0,30.22,WNW,288,0.0,5.0,61,0.00,,,0.00,,2013-05-19 00:32:00,
2013-05-18 20:41:00,62.0,48.0,30.22,WNW,288,0.0,5.0,61,0.00,,,0.00,,2013-05-19 00:41:00,
2013-05-18 20:52:00,62.0,49.0,30.22,SW,221,0.0,1.0,62,0.00,,,0.00,,2013-05-19 00:52:00,
2013-05-18 21:01:00,61.0,49.0,30.23,West,264,0.0,2.0,64,0.00,,,0.00,,2013-05-19 01:01:00,
2013-05-18 21:11:00,61.0,49.0,30.23,West,264,0.0,2.0,64,0.00,,,0.00,,2013-05-19 01:11:00,
2013-05-18 21:21:00,60.0,48.0,30.23,West,281,0.0,3.0,64,0.00,,,0.00,,2013-05-19 01:21:00,
2013-05-18 21:32:00,60.0,47.0,30.23,West,281,2.0,3.0,62,0.00,,,0.00,,2013-05-19 01:32:00,
2013-05-18 21:42:00,60.0,47.0,30.23,West,281,2.0,3.0,62,0.00,,,0.00,,2013-05-19 01:42:00,
2013-05-18 21:52:00,59.0,46.0,30.24,WSW,249,0.0,4.0,62,0.00,,,0.00,,2013-05-19 01:52:00,
2013-05-18 22:01:00,59.0,47.0,30.24,West,274,0.0,3.0,64,0.00,,,0.00,,2013-05-19 02:01:00,
2013-05-18 22:11:00,59.0,47.0,30.24,West,274,0.0,3.0,64,0.00,,,0.00,,2013-05-19 02:11:00,
2013-05-18 22:22:00,58.0,46.0,30.24,West,274,0.0,1.0,65,0.00,,,0.00,,2013-05-19 02:22:00,
2013-05-18 22:32:00,58.0,47.0,30.24,West,274,0.0,1.0,68,0.00,,,0.00,,2013-05-19 02:32:00,
2013-05-18 22:42:00,58.0,47.0,30.24,West,274,0.0,1.0,68,0.00,,,0.00,,2013-05-19 02:42:00,
2013-05-18 22:52:00,57.0,47.0,30.24,West,274,0.0,2.0,69,0.00,,,0.00,,2013-05-19 02:52:00,
2013-05-18 23:01:00,57.0,47.0,30.24,WSW,257,0.0,2.0,70,0.00,,,0.00,,2013-05-19 03:01:00,
2013-05-18 23:11:00,57.0,47.0,30.24,WSW,257,0.0,2.0,70,0.00,,,0.00,,2013-05-19 03:11:00,
2013-05-18 23:22:00,56.0,47.0,30.24,WSW,257,0.0,1.0,72,0.00,,,0.00,,2013-05-19 03:22:00,
2013-05-18 23:33:00,56.0,47.0,30.25,WSW,257,0.0,0.0,73,0.00,,,0.00,,2013-05-19 03:33:00,
2013-05-18 23:42:00,56.0,47.0,30.25,WSW,257,0.0,0.0,73,0.00,,,0.00,,2013-05-19 03:42:00,
2013-05-18 23:53:00,55.0,47.0,30.25,WSW,257,0.0,0.0,75,0.00,,,0.00,,2013-05-19 03:53:00,